Tracking 17155 objects as of 29-July-2015
HD Live streaming from Space Station

SL-3 R/B

Track SL-3 R/B now!
10-day predictions
SL-3 R/B is classified as:


NORAD ID: 8027
Int'l Code: 1975-064B
Perigee: 836.6 km
Apogee: 915.1 km
Inclination: 81.3 °
Period: 102.3 minutes
Semi major axis: 7246 km
RCS: 6.004 m2 (large)
Launch date: July 11, 1975
Source: Commonwealth of Independent States (former USSR) (CIS)

Note: This is a ROCKET BODY
Your satellite tracking list
Your tracking list is empty





NASA's NSSDC Master Catalog

Two Line Element Set (TLE):
1 08027U 75064B   15210.10724837  .00000082  00000-0  40524-4 0  9999
2 08027 081.2998 359.3226 0054151 052.8468 307.7629 14.07272284 55567

Source of the keplerian elements: AFSPC

N2YO: 301